SCP
-0 -0 -0 -0 -0 -0 -0 -0 0 -0 -0 -0 -0 -0 -0 0 0 0 0 0 0 0
-0 -0 -0 -0 -0 -0 -0 0 -0 -0 -0 -0 -0 -0 -0 0 0 0 0 0 0 0
-1 -0 -0 -0 -0 0 0 -0 -0 -0 -0 -0 -0 0 0 0 0 0 0 0 0 0
-1 -0 -0 -0 -0 0 0 -0 -0 -0 -0 -0 -0 0 0 0 0 0 0 0 0 0
-1 -1 -1 -0 -0 -0 -0 -0 -0 -0 -0 -0 0 0 0 0 0 0 0 0 0 0
-0 -1 -1 -0 -0 -0 -0 -0 -0 -0 -0 0 0 0 0 0 0 0 0 0 0 0
-1 -1 -1 -0 -0 -0 -0 -0 -0 -0 -0 0 0 0 0 0 0 0 0 0 0 0
-1 -0 -0 0 -0 -0 -0 -0 -0 -0 0 0 0 0 0 0 0 0 0 0 0 0
0 1 1 0 0 -0 0 -0 -0 -0 -0 0 0 0 0 0 0 0 0 0 0 0
1 1 1 1 1 0 0 0 0 -0 0 0 0 0 0 0 0 0 0 0 0 0
3 2 2 1 1 0 0 0 0 0 0 0 0 0 0 0 0 0 0 0 0 0
5 3 2 1 1 0 0 0 0 0 0 0 0 0 0 0 0 0 0 0 0 0
5 4 3 2 1 0 0 0 0 0 0 0 0 0 0 0 0 0 0 0 0 0
6 4 3 2 0 0 0 0 0 0 0 0 0 0 0 0 0 0 0 0 0 0
Wind_Speed_500mb
51 47 44 36 31 26 27 30 38 34 25 20 20 20 21 22 22 20 19 18 20 22
58 52 50 42 36 28 23 22 27 24 22 24 24 24 24 23 25 23 22 17 20 27
61 60 54 47 42 36 36 33 34 30 28 28 27 25 27 27 27 24 22 12 19 26
62 63 61 56 48 44 41 41 42 38 35 32 31 30 30 31 30 24 19 15 17 27
59 63 66 65 56 49 48 46 45 44 42 37 32 30 31 31 29 25 22 22 19 27
62 63 67 68 61 58 54 52 49 48 45 40 34 31 31 30 28 23 19 19 22 24
69 66 65 68 69 67 61 57 54 50 46 42 38 36 32 29 26 22 21 22 21 21
72 68 69 69 73 72 66 61 54 51 48 44 42 38 32 27 26 26 26 23 19 17
84 79 77 72 73 74 69 66 57 53 48 46 43 38 30 29 28 30 28 23 20 21
88 84 83 78 75 74 76 73 63 59 52 48 44 39 32 30 31 32 29 25 25 21
90 86 84 80 79 77 80 78 69 65 53 49 46 40 36 29 29 33 30 28 26 25
96 90 86 83 79 79 78 79 70 67 54 52 49 44 42 39 32 34 33 30 30 25
97 92 90 84 82 84 67 51 58 60 52 50 49 48 49 46 39 37 36 31 31 22
94 84 76 89 92 90 61 59 63 67 50 51 48 49 53 49 45 40 36 28 31 23
Wind_Direction_500mb
219 216 219 219 217 219 218 227 220 217 231 246 247 253 252 259 264 268 275 280 232 215
219 218 220 220 220 222 202 189 197 215 227 242 248 257 263 259 264 275 293 279 222 220
221 220 220 222 220 215 210 211 217 230 238 246 250 264 264 262 266 278 288 250 222 223
222 222 222 222 219 217 219 223 226 234 241 249 255 262 262 260 263 277 278 252 234 222
222 222 223 224 222 221 224 222 228 236 240 245 251 254 256 255 259 267 269 260 231 219
218 220 223 223 222 223 224 226 228 231 236 242 253 248 246 249 252 254 251 228 211 210
218 219 220 219 220 223 227 229 231 232 236 240 249 245 243 246 237 230 229 212 207 216
219 221 219 217 218 224 228 230 231 232 232 238 238 240 240 236 229 226 216 211 208 210
222 219 220 218 216 221 227 227 228 227 235 236 232 234 232 229 227 215 212 207 212 218
225 222 222 220 216 217 223 223 224 226 235 227 226 226 223 219 216 214 209 203 200 195
224 225 225 221 220 219 223 221 218 224 232 221 222 218 207 201 208 214 210 207 209 200
225 225 225 223 222 221 227 220 215 227 221 216 217 216 207 206 208 210 208 203 201 208
228 229 228 226 221 224 231 239 237 232 216 216 213 211 210 206 210 206 200 203 210 217
228 234 238 227 222 226 227 213 231 221 213 212 215 212 208 210 211 210 198 200 202 196
Wind_Speed_850mb
51 47 44 36 31 26 27 30 38 34 25 20 20 20 21 22 22 20 19 18 20 22
58 52 50 42 36 28 23 22 27 24 22 24 24 24 24 23 25 23 22 17 20 27
61 60 54 47 42 36 36 33 34 30 28 28 27 25 27 27 27 24 22 12 19 26
62 63 61 56 48 44 41 41 42 38 35 32 31 30 30 31 30 24 19 15 17 27
59 63 66 65 56 49 48 46 45 44 42 37 32 30 31 31 29 25 22 22 19 27
62 63 67 68 61 58 54 52 49 48 45 40 34 31 31 30 28 23 19 19 22 24
69 66 65 68 69 67 61 57 54 50 46 42 38 36 32 29 26 22 21 22 21 21
72 68 69 69 73 72 66 61 54 51 48 44 42 38 32 27 26 26 26 23 19 17
84 79 77 72 73 74 69 66 57 53 48 46 43 38 30 29 28 30 28 23 20 21
88 84 83 78 75 74 76 73 63 59 52 48 44 39 32 30 31 32 29 25 25 21
90 86 84 80 79 77 80 78 69 65 53 49 46 40 36 29 29 33 30 28 26 25
96 90 86 83 79 79 78 79 70 67 54 52 49 44 42 39 32 34 33 30 30 25
97 92 90 84 82 84 67 51 58 60 52 50 49 48 49 46 39 37 36 31 31 22
94 84 76 89 92 90 61 59 63 67 50 51 48 49 53 49 45 40 36 28 31 23
Wind_Direction_850mb
219 216 219 219 217 219 218 227 220 217 231 246 247 253 252 259 264 268 275 280 232 215
219 218 220 220 220 222 202 189 197 215 227 242 248 257 263 259 264 275 293 279 222 220
221 220 220 222 220 215 210 211 217 230 238 246 250 264 264 262 266 278 288 250 222 223
222 222 222 222 219 217 219 223 226 234 241 249 255 262 262 260 263 277 278 252 234 222
222 222 223 224 222 221 224 222 228 236 240 245 251 254 256 255 259 267 269 260 231 219
218 220 223 223 222 223 224 226 228 231 236 242 253 248 246 249 252 254 251 228 211 210
218 219 220 219 220 223 227 229 231 232 236 240 249 245 243 246 237 230 229 212 207 216
219 221 219 217 218 224 228 230 231 232 232 238 238 240 240 236 229 226 216 211 208 210
222 219 220 218 216 221 227 227 228 227 235 236 232 234 232 229 227 215 212 207 212 218
225 222 222 220 216 217 223 223 224 226 235 227 226 226 223 219 216 214 209 203 200 195
224 225 225 221 220 219 223 221 218 224 232 221 222 218 207 201 208 214 210 207 209 200
225 225 225 223 222 221 227 220 215 227 221 216 217 216 207 206 208 210 208 203 201 208
228 229 228 226 221 224 231 239 237 232 216 216 213 211 210 206 210 206 200 203 210 217
228 234 238 227 222 226 227 213 231 221 213 212 215 212 208 210 211 210 198 200 202 196